EW5684 Weather Reports


Display with metric or nautical units.
time (UTC)temp
F
wind
direction
speed
MPH
gust
MPH
rain 1hr
in
rain 24hr
in
rain mn
in
humidity
%
barometer
mb
20260831082148 81 233 2.0 3.0 0.00 0.00 0.00 42 1017.1
20260831081650 81 307 1.0 4.0 0.00 0.00 0.00 44 1017.1
20260831081420 80 336 2.0 4.0 0.00 0.00 0.00 44 1017.2
20260831080648 80 18 1.0 4.0 0.00 0.00 0.00 43 1017.2
20260831080149 80 17 2.0 4.0 0.00 0.00 0.00 44 1017.2
20260831075648 80 35 1.0 3.0 0.00 0.00 0.00 45 1017.2
20260831075145 79 41 2.0 3.0 0.00 0.00 0.00 44 1017.1
20260831074908 79 41 2.0 3.0 0.00 0.00 0.00 45 1017.1
20260831074147 78 35 0.0 3.0 0.00 0.00 0.00 46 1017.1
20260831073649 78 35 1.0 3.0 0.00 0.00 0.00 46 1017.1
20260831073148 77 34 1.0 2.0 0.00 0.00 0.00 47 1017.2
20260831072647 77 35 0.0 2.0 0.00 0.00 0.00 48 1017.2
20260831072147 76 35 0.0 2.0 0.00 0.00 0.00 48 1017.2
20260831071647 76 54 0.0 2.0 0.00 0.00 0.00 48 1017.2
20260831071409 76 55 2.0 2.0 0.00 0.00 0.00 50 1017.4
20260831070917 76 0 0.0 1.0 0.00 0.00 0.00 49 1017.2
20260831070352 75 54 0.0 3.0 0.00 0.00 0.00 50 1017.3
20260831070342 76 54 0.0 1.0 0.00 0.00 0.00 49 1017.3
20260831065647 75 54 0.0 3.0 0.00 0.00 0.00 50 1017.3
20260831065147 74 54 0.0 3.0 0.00 0.00 0.00 50 1017.3
20260831064647 74 54 2.0 4.0 0.00 0.00 0.00 50 1017.1
20260831064147 73 39 1.0 4.0 0.00 0.00 0.00 51 1017.1
20260831063647 73 41 1.0 3.0 0.00 0.00 0.00 51 1017.2
20260831063147 72 0 1.0 3.0 0.00 0.00 0.00 52 1017.2
20260831062646 72 0 0.0 3.0 0.00 0.00 0.00 52 1017.2
20260831062146 72 41 0.0 3.0 0.00 0.00 0.00 54 1017.3
20260831061646 72 39 1.0 3.0 0.00 0.00 0.00 54 1017.3
20260831061146 71 0 0.0 2.0 0.00 0.00 0.00 53 1017.2
20260831060645 71 0 0.0 2.0 0.00 0.00 0.00 52 1017.1
20260831060145 70 0 0.0 3.0 0.00 0.00 0.00 53 1017.0
20260831055646 70 0 2.0 3.0 0.00 0.00 0.00 54 1017.1
20260831055145 69 0 0.0 1.0 0.00 0.00 0.00 54 1017.1
20260831054911 69 0 0.0 1.0 0.00 0.00 0.00 54 1017.0
20260831054145 69 0 0.0 2.0 0.00 0.00 0.00 55 1017.0
20260831053911 68 0 1.0 2.0 0.00 0.00 0.00 56 1016.9
20260831053407 68 0 1.0 5.0 0.00 0.00 0.00 56 1016.9
20260831052645 68 0 0.0 5.0 0.00 0.00 0.00 57 1016.9
20260831052144 67 0 3.0 5.0 0.00 0.00 0.00 57 1016.8
20260831051914 67 0 3.0 5.0 0.00 0.00 0.00 57 1016.8
20260831051145 67 0 1.0 2.0 0.00 0.00 0.00 58 1016.8
20260831050644 67 0 1.0 1.0 0.00 0.00 0.00 58 1016.6
20260831050145 67 0 0.0 0.0 0.00 0.00 0.00 58 1016.6
20260831045644 66 0 0.0 2.0 0.00 0.00 0.00 58 1016.7
20260831045144 66 0 0.0 3.0 0.00 0.00 0.00 58 1016.6
20260831044644 66 0 0.0 3.0 0.00 0.00 0.00 58 1016.4
20260831044144 67 0 3.0 3.0 0.00 0.00 0.00 58 1016.3
20260831043908 68 0 0.0 1.0 0.00 0.00 0.00 58 1016.4
20260831043403 68 0 0.0 2.0 0.00 0.00 0.00 58 1016.2
20260831042644 68 0 2.0 2.0 0.00 0.00 0.00 58 1016.3
20260831042627 68 0 0.0 2.0 0.00 0.00 0.00 58 1016.4
20260831041644 69 0 1.0 2.0 0.00 0.00 0.00 57 1016.3
20260831041403 69 0 0.0 1.0 0.00 0.00 0.00 56 1016.3
20260831040643 70 0 0.0 0.0 0.00 0.00 0.00 56 1016.3
20260831040143 70 0 0.0 2.0 0.00 0.00 0.00 56 1016.3
20260831035900 70 0 1.0 2.0 0.00 0.00 0.00 56 1016.3
20260831035143 71 0 0.0 0.0 0.00 0.00 0.00 55 1016.3
20260831035129 71 0 0.0 0.0 0.00 0.00 0.00 55 1016.2
20260831034143 71 0 0.0 0.0 0.00 0.00 0.00 55 1016.3
20260831033642 71 0 0.0 2.0 0.00 0.00 0.00 55 1016.4
20260831033142 71 0 0.0 2.0 0.00 0.00 0.00 55 1016.4
20260831032642 71 0 0.0 2.0 0.00 0.00 0.00 55 1016.5
20260831032142 71 0 2.0 2.0 0.00 0.00 0.00 55 1016.5
20260831031642 71 0 2.0 2.0 0.00 0.00 0.00 55 1016.5
20260831031142 71 0 0.0 2.0 0.00 0.00 0.00 55 1016.4
20260831030641 71 0 1.0 3.0 0.00 0.00 0.00 55 1016.5
20260831030142 71 0 2.0 3.0 0.00 0.00 0.00 55 1016.5
20260831025642 71 0 0.0 2.0 0.00 0.00 0.00 55 1016.4
20260831025141 71 0 1.0 2.0 0.00 0.00 0.00 55 1016.4
20260831024641 71 0 1.0 2.0 0.00 0.00 0.00 55 1016.4
20260831024141 71 0 0.0 1.0 0.00 0.00 0.00 55 1016.4
20260831023641 71 0 0.0 1.0 0.00 0.00 0.00 55 1016.4
20260831023140 71 0 0.0 4.0 0.00 0.00 0.00 54 1016.4
20260831022641 71 0 2.0 4.0 0.00 0.00 0.00 55 1016.5
20260831022140 71 0 1.0 4.0 0.00 0.00 0.00 55 1016.4
20260831021640 71 0 0.0 0.0 0.00 0.00 0.00 55 1016.4
20260831021405 71 0 0.0 0.0 0.00 0.00 0.00 55 1016.5
20260831020640 71 0 0.0 0.0 0.00 0.00 0.00 55 1016.4
20260831020405 71 0 0.0 0.0 0.00 0.00 0.00 55 1016.4
20260831015640 71 0 0.0 0.0 0.00 0.00 0.00 55 1016.4
20260831015140 71 0 0.0 0.0 0.00 0.00 0.00 55 1016.3
20260831014630 71 0 0.0 0.0 0.00 0.00 0.00 55 1016.4
20260831014131 71 0 0.0 0.0 0.00 0.00 0.00 55 1016.4
20260831013630 71 0 0.0 0.0 0.00 0.00 0.00 54 1016.4
20260831013122 72 0 0.0 0.0 0.00 0.00 0.00 53 1016.3
20260831012626 73 0 0.0 0.0 0.00 0.00 0.00 53 1016.3
20260831012103 73 0 0.0 0.0 0.00 0.00 0.00 52 1016.4
20260831011603 73 0 0.0 0.0 0.00 0.00 0.00 52 1016.4
20260831011102 73 0 0.0 0.0 0.00 0.00 0.00 52 1016.4
20260831010603 73 0 0.0 0.0 0.00 0.00 0.00 52 1016.3
20260831005603 73 0 0.0 0.0 0.00 0.00 0.00 52 1016.4
20260831005104 73 0 0.0 0.0 0.00 0.00 0.00 52 1016.5
20260831004603 74 0 0.0 0.0 0.00 0.00 0.00 52 1016.6
20260831004320 74 0 0.0 0.0 0.00 0.00 0.00 51 1016.6
20260831003604 74 0 0.0 0.0 0.00 0.00 0.00 51 1016.6
20260831003103 74 0 0.0 0.0 0.00 0.00 0.00 51 1016.6
20260831002603 74 0 0.0 0.0 0.00 0.00 0.00 51 1016.7
20260831002103 74 0 0.0 0.0 0.00 0.00 0.00 51 1016.6
20260831001603 74 0 0.0 0.0 0.00 0.00 0.00 50 1016.6
20260831001325 74 0 0.0 0.0 0.00 0.00 0.00 50 1016.7
20260831000607 74 0 0.0 0.0 0.00 0.00 0.00 50 1016.7
20260831000103 74 0 0.0 0.0 0.00 0.00 0.00 49 1016.7
20260830235604 75 0 0.0 0.0 0.00 0.00 0.00 49 1016.7
20260830235103 75 0 0.0 1.0 0.00 0.00 0.00 49 1016.8
20260830234604 75 0 0.0 3.0 0.00 0.00 0.00 48 1016.8
20260830234103 75 0 1.0 4.0 0.00 0.00 0.00 48 1016.9
20260830233829 75 0 2.0 4.0 0.00 0.00 0.00 48 1016.9
20260830233103 75 0 3.0 4.0 0.00 0.00 0.00 48 1016.9
20260830232604 75 0 1.0 6.0 0.00 0.00 0.00 48 1016.9
20260830232103 75 0 4.0 6.0 0.00 0.00 0.00 48 1017.0
20260830231604 75 0 2.0 4.0 0.00 0.00 0.00 48 1017.0
20260830231103 75 0 3.0 6.0 0.00 0.00 0.00 48 1016.9
20260830230604 76 0 5.0 6.0 0.00 0.00 0.00 48 1017.0
20260830230104 76 0 3.0 5.0 0.00 0.00 0.00 48 1017.0
20260830225603 76 0 2.0 5.0 0.00 0.00 0.00 48 1017.0
20260830225103 76 0 4.0 7.0 0.00 0.00 0.00 48 1017.0
20260830224604 76 0 3.0 7.0 0.00 0.00 0.00 48 1017.0
20260830224103 76 0 2.0 4.0 0.00 0.00 0.00 48 1017.0
20260830223603 76 0 3.0 5.0 0.00 0.00 0.00 48 1016.9
20260830223103 76 0 2.0 5.0 0.00 0.00 0.00 48 1016.9
20260830222604 76 0 2.0 4.0 0.00 0.00 0.00 48 1017.0
20260830222103 76 0 2.0 4.0 0.00 0.00 0.00 48 1016.9
20260830221604 77 0 1.0 3.0 0.00 0.00 0.00 48 1017.0
20260830221104 77 0 2.0 2.0 0.00 0.00 0.00 47 1017.0
20260830220603 77 0 1.0 2.0 0.00 0.00 0.00 47 1016.9
20260830215604 77 0 2.0 3.0 0.00 0.00 0.00 46 1016.8
20260830215104 77 0 0.0 3.0 0.00 0.00 0.00 46 1016.8
20260830214603 77 0 1.0 3.0 0.00 0.00 0.00 46 1016.8
20260830214104 77 0 2.0 3.0 0.00 0.00 0.00 46 1016.7
20260830213604 78 0 3.0 4.0 0.00 0.00 0.00 46 1016.7
20260830213103 78 0 1.0 4.0 0.00 0.00 0.00 46 1016.7
20260830212603 78 0 2.0 3.0 0.00 0.00 0.00 46 1016.6
20260830212104 78 0 1.0 3.0 0.00 0.00 0.00 46 1016.6
20260830211603 78 0 2.0 5.0 0.00 0.00 0.00 46 1016.7
20260830211326 78 0 2.0 5.0 0.00 0.00 0.00 46 1016.7
20260830210603 78 0 2.0 4.0 0.00 0.00 0.00 45 1016.7
20260830210103 78 0 1.0 3.0 0.00 0.00 0.00 45 1016.6
20260830205604 78 0 0.0 0.0 0.00 0.00 0.00 45 1016.6
20260830205103 78 0 0.0 0.0 0.00 0.00 0.00 45 1016.7
20260830204603 79 0 0.0 0.0 0.00 0.00 0.00 45 1016.6
20260830204103 79 0 0.0 4.0 0.00 0.00 0.00 45 1016.6
20260830203604 79 0 2.0 4.0 0.00 0.00 0.00 45 1016.6
20260830203104 79 0 3.0 4.0 0.00 0.00 0.00 45 1016.6
20260830202604 79 0 3.0 4.0 0.00 0.00 0.00 45 1016.5
20260830202103 79 0 2.0 4.0 0.00 0.00 0.00 45 1016.4
20260830201603 79 0 3.0 4.0 0.00 0.00 0.00 45 1016.5
20260830201324 80 0 2.0 3.0 0.00 0.00 0.00 44 1016.4
20260830200603 80 0 2.0 4.0 0.00 0.00 0.00 44 1016.5
20260830200103 80 0 2.0 4.0 0.00 0.00 0.00 44 1016.4
20260830195829 80 0 3.0 6.0 0.00 0.00 0.00 43 1016.4
20260830195322 80 0 3.0 6.0 0.00 0.00 0.00 43 1016.4
20260830194603 80 0 4.0 5.0 0.00 0.00 0.00 43 1016.4
20260830194103 80 0 3.0 5.0 0.00 0.00 0.00 42 1016.3
20260830193604 81 0 3.0 5.0 0.00 0.00 0.00 42 1016.3
20260830193327 81 0 3.0 5.0 0.00 0.00 0.00 42 1016.2
20260830192602 81 0 4.0 5.0 0.00 0.00 0.00 42 1016.4
20260830192102 81 0 4.0 5.0 0.00 0.00 0.00 42 1016.2
20260830191602 82 0 3.0 5.0 0.00 0.00 0.00 42 1016.2
20260830191102 82 0 3.0 5.0 0.00 0.00 0.00 41 1016.1
20260830190602 82 0 2.0 5.0 0.00 0.00 0.00 41 1016.0
20260830190548 82 0 2.0 5.0 0.00 0.00 0.00 41 1016.0
20260830185603 82 0 2.0 5.0 0.00 0.00 0.00 40 1015.9
20260830185104 82 0 3.0 5.0 0.00 0.00 0.00 40 1015.8
20260830184601 83 0 3.0 5.0 0.00 0.00 0.00 40 1015.8
20260830184102 83 0 2.0 5.0 0.00 0.00 0.00 40 1015.7
20260830183602 83 0 4.0 6.0 0.00 0.00 0.00 39 1015.6
20260830183102 83 0 3.0 6.0 0.00 0.00 0.00 39 1015.5
20260830182601 83 0 4.0 5.0 0.00 0.00 0.00 39 1015.5
20260830182102 83 0 4.0 5.0 0.00 0.00 0.00 39 1015.5
20260830181602 84 0 3.0 5.0 0.00 0.00 0.00 39 1015.5
20260830181102 84 0 3.0 7.0 0.00 0.00 0.00 38 1015.4
20260830180602 84 0 4.0 7.0 0.00 0.00 0.00 38 1015.2
20260830175602 84 71 6.0 11.0 0.00 0.00 0.00 38 1015.2
20260830175102 85 0 4.0 11.0 0.00 0.00 0.00 38 1015.2
20260830174602 85 0 6.0 9.0 0.00 0.00 0.00 37 1015.0
20260830174101 85 61 3.0 7.0 0.00 0.00 0.00 37 1015.0
20260830173602 86 68 3.0 7.0 0.00 0.00 0.00 36 1015.0
20260830173102 86 63 4.0 7.0 0.00 0.00 0.00 36 1014.9
20260830172601 86 56 4.0 7.0 0.00 0.00 0.00 35 1015.0
20260830172321 86 63 4.0 7.0 0.00 0.00 0.00 35 1015.0
20260830171601 87 71 4.0 7.0 0.00 0.00 0.00 34 1015.0
20260830171102 87 61 4.0 9.0 0.00 0.00 0.00 34 1014.9
20260830170602 87 76 7.0 9.0 0.00 0.00 0.00 33 1015.0
20260830165601 89 58 5.0 7.0 0.00 0.00 0.00 30 1015.1
20260830165102 90 68 2.0 6.0 0.00 0.00 0.00 29 1015.1
20260830164602 90 63 5.0 6.0 0.00 0.00 0.00 29 1015.0
20260830164325 90 226 0.0 2.0 0.00 0.00 0.00 26 1015.0
20260830163602 90 226 1.0 4.0 0.00 0.00 0.00 26 1015.0
20260830163102 90 226 1.0 4.0 0.00 0.00 0.00 26 1014.9
20260830162602 91 223 1.0 4.0 0.00 0.00 0.00 27 1014.9
20260830162102 90 138 0.0 3.0 0.00 0.00 0.00 25 1014.9
20260830161825 90 138 0.0 5.0 0.00 0.00 0.00 25 1014.9
20260830161102 89 128 1.0 5.0 0.00 0.00 0.00 27 1014.9
20260830160601 89 199 2.0 5.0 0.00 0.00 0.00 27 1014.9
20260830160324 89 161 0.0 4.0 0.00 0.00 0.00 26 1014.9
20260830155602 89 168 3.0 4.0 0.00 0.00 0.00 26 1014.9
20260830155102 89 149 2.0 4.0 0.00 0.00 0.00 25 1014.9
20260830154602 90 152 4.0 4.0 0.00 0.00 0.00 26 1014.9
20260830154101 90 220 1.0 4.0 0.00 0.00 0.00 25 1015.1
20260830153602 89 182 1.0 5.0 0.00 0.00 0.00 25 1015.1
20260830153102 89 189 4.0 5.0 0.00 0.00 0.00 27 1015.1
20260830152826 89 180 2.0 5.0 0.00 0.00 0.00 27 1015.1
20260830152327 89 197 2.0 5.0 0.00 0.00 0.00 27 1015.1
20260830151602 90 188 3.0 5.0 0.00 0.00 0.00 26 1015.1
20260830151101 89 182 1.0 5.0 0.00 0.00 0.00 26 1015.1
20260830150602 89 189 3.0 7.0 0.00 0.00 0.00 27 1015.2
20260830145602 89 173 2.0 9.0 0.00 0.00 0.00 26 1015.2
20260830145102 90 138 6.0 9.0 0.00 0.00 0.00 26 1015.2
20260830144602 90 109 5.0 9.0 0.00 0.00 0.00 27 1015.2
20260830144544 90 102 2.0 4.0 0.00 0.00 0.00 27 1015.2
20260830143601 89 121 2.0 4.0 0.00 0.00 0.00 27 1015.1
20260830143101 89 199 1.0 7.0 0.00 0.00 0.00 28 1015.2
20260830142602 89 135 2.0 9.0 0.00 0.00 0.00 28 1015.2
20260830142102 89 155 3.0 9.0 0.00 0.00 0.00 29 1015.4
20260830141602 88 216 6.0 9.0 0.00 0.00 0.00 28 1015.4
20260830141102 89 165 2.0 6.0 0.00 0.00 0.00 28 1015.4
20260830140825 89 166 4.0 6.0 0.00 0.00 0.00 28 1015.5
20260830140101 89 168 2.0 5.0 0.00 0.00 0.00 29 1015.6
20260830135823 88 202 4.0 5.0 0.00 0.00 0.00 30 1015.7
20260830135336 88 186 2.0 5.0 0.00 0.00 0.00 29 1015.7
20260830134601 88 241 2.0 6.0 0.00 0.00 0.00 30 1015.8
20260830134102 88 210 5.0 6.0 0.00 0.00 0.00 29 1015.8
20260830133602 89 179 3.0 4.0 0.00 0.00 0.00 28 1015.7
20260830133324 89 188 0.0 4.0 0.00 0.00 0.00 30 1015.8
20260830132602 88 279 2.0 7.0 0.00 0.00 0.00 31 1015.9
20260830132102 88 200 3.0 9.0 0.00 0.00 0.00 31 1015.9
20260830131602 88 209 4.0 9.0 0.00 0.00 0.00 30 1016.0
20260830131102 89 200 2.0 3.0 0.00 0.00 0.00 29 1016.1
20260830130602 89 134 1.0 5.0 0.00 0.00 0.00 29 1016.1
20260830125603 87 250 4.0 9.0 0.00 0.00 0.00 32 1016.2
20260830125102 88 217 4.0 5.0 0.00 0.00 0.00 32 1016.2
20260830124602 89 171 2.0 10.0 0.00 0.00 0.00 31 1016.3
20260830124101 88 124 3.0 10.0 0.00 0.00 0.00 32 1016.2
20260830123602 88 39 8.0 14.0 0.00 0.00 0.00 32 1016.4
20260830123102 88 65 4.0 14.0 0.00 0.00 0.00 32 1016.4
20260830123052 87 144 3.0 5.0 0.00 0.00 0.00 33 1016.4
20260830122102 86 251 1.0 5.0 0.00 0.00 0.00 33 1016.5
20260830121602 86 182 2.0 7.0 0.00 0.00 0.00 34 1016.5
20260830121102 87 171 3.0 7.0 0.00 0.00 0.00 33 1016.5
20260830121013 87 128 5.0 7.0 0.00 0.00 0.00 32 1016.6
20260830121007 88 93 3.0 5.0 0.00 0.00 0.00 32 1016.6
20260830115602 87 103 4.0 7.0 0.00 0.00 0.00 33 1016.7
20260830115102 86 245 2.0 7.0 0.00 0.00 0.00 33 1016.6
20260830114603 86 186 3.0 5.0 0.00 0.00 0.00 33 1016.8
20260830114102 85 178 4.0 5.0 0.00 0.00 0.00 34 1016.7
20260830113601 86 158 2.0 6.0 0.00 0.00 0.00 33 1016.8
20260830113102 86 188 5.0 13.0 0.00 0.00 0.00 34 1016.8
20260830112602 86 131 2.0 13.0 0.00 0.00 0.00 34 1016.8
20260830112102 86 76 4.0 5.0 0.00 0.00 0.00 34 1016.9
20260830111602 86 106 2.0 7.0 0.00 0.00 0.00 35 1016.8
20260830111101 85 157 4.0 7.0 0.00 0.00 0.00 35 1016.9
20260830110825 85 111 2.0 7.0 0.00 0.00 0.00 33 1017.0
20260830105603 85 80 4.0 5.0 0.00 0.00 0.00 33 1017.1
20260830105102 86 97 2.0 5.0 0.00 0.00 0.00 34 1017.2
20260830104602 84 71 3.0 7.0 0.00 0.00 0.00 34 1017.2
20260830104102 84 76 5.0 7.0 0.00 0.00 0.00 35 1017.3
20260830103602 83 82 3.0 6.0 0.00 0.00 0.00 36 1017.4
20260830103102 84 165 2.0 9.0 0.00 0.00 0.00 35 1017.4
20260830102828 84 73 4.0 9.0 0.00 0.00 0.00 35 1017.5
20260830102102 84 69 4.0 7.0 0.00 0.00 0.00 36 1017.5
20260830101602 83 354 2.0 7.0 0.00 0.00 0.00 35 1017.5
20260830101330 84 61 3.0 7.0 0.00 0.00 0.00 36 1017.6
20260830100602 83 73 5.0 7.0 0.00 0.00 0.00 36 1017.6
20260830095602 83 76 4.0 9.0 0.00 0.00 0.00 36 1017.7
20260830095102 82 118 4.0 6.0 0.00 0.00 0.00 37 1017.6
20260830094826 82 97 4.0 6.0 0.00 0.00 0.00 37 1017.6
20260830094103 82 71 4.0 10.0 0.00 0.00 0.00 38 1017.6
20260830093602 81 80 4.0 10.0 0.00 0.00 0.00 38 1017.7
20260830093102 82 73 6.0 10.0 0.00 0.00 0.00 38 1017.8
20260830092602 81 71 4.0 10.0 0.00 0.00 0.00 39 1017.8
20260830092102 80 35 5.0 7.0 0.00 0.00 0.00 40 1017.8
20260830091603 80 0 2.0 10.0 0.00 0.00 0.00 40 1017.9
20260830091101 80 0 3.0 10.0 0.00 0.00 0.00 39 1017.9
20260830090821 80 0 6.0 11.0 0.00 0.00 0.00 39 1017.9
20260830085602 79 0 4.0 10.0 0.00 0.00 0.00 40 1017.9
20260830085102 79 0 7.0 11.0 0.00 0.00 0.00 40 1017.9
20260830084602 79 0 6.0 11.0 0.00 0.00 0.00 40 1017.9
20260830084101 78 0 3.0 9.0 0.00 0.00 0.00 41 1018.0
20260830083601 78 0 6.0 9.0 0.00 0.00 0.00 41 1018.0
20260830083102 78 0 7.0 9.0 0.00 0.00 0.00 41 1018.0